Home   Weather   Perchtoldsdorf   Past weeks

Flag for Austria Past Weather in Perchtoldsdorf, Lower Austria, Austria — Yesterday and Last 2 Weeks

Now
49 °F

Overcast.


Feels Like: 49 °F
Forecast: 29 / 46 °F
Wind: 2 mph from West

Location: Wien / Hohe Warte

Current Time: Dec 10, 2016 at 10:13:21 am

Latest Report: Dec 10, 2016 at 9:00 am


Visibility: 19 mi

Pressure: 30.29 "Hg

Humidity: 58%

Dew Point: 35 °F

Location of PerchtoldsdorfLocation

Past Weather in Perchtoldsdorf — Graph

°F

Perchtoldsdorf Temperature Yesterday

Maximum temperature yesterday: 52 °F (at 12:00 pm)
Minimum temperature yesterday: 27 °F (at 7:00 am)
Average temperature yesterday: 41 °F

High & Low Weather Summary for the Past Weeks

 TemperatureHumidityPressure
High52 °F (Dec 9, 12:00 pm)100% (Dec 9, 7:00 am)30.71 "Hg (Dec 9, 7:00 am)
Low24 °F (Dec 4, 6:00 am)36% (Dec 9, 1:00 pm)29.80 "Hg (Dec 2, 7:00 am)
Average36 °F77%30.32 "Hg
* Reported Nov 25 8:00 am — Dec 10 8:00 am, Perchtoldsdorf, Weather by CustomWeather, © 2016

Note: Actual official high and low records may vary slightly from our data, if they occured in-between our weather recording intervals... More about our weather records

Advertising

Perchtoldsdorf Weather History for the Previous 24 Hours

Scroll right to see more
 ConditionsComfort  
Time TempWeatherWind HumidityBarometerVisibility
8:00 am
Sat, Dec 10
48 °FScattered clouds.7 mph63%30.29 "Hg19 mi
7:00 am48 °FPassing clouds.7 mph66%30.29 "Hg19 mi
6:00 am47 °FPassing clouds.6 mph71%30.30 "Hg19 mi
5:00 am47 °FCool.5 mph71%30.31 "HgN/A
4:00 am47 °FCool.7 mph78%30.32 "HgN/A
3:00 am47 °FCool.7 mph76%30.33 "HgN/A
2:00 am47 °FCool.9 mph67%30.34 "HgN/A
1:00 am47 °FClear.7 mph68%30.36 "Hg19 mi
12:00 am45 °FCool.5 mph72%30.37 "HgN/A
11:00 pm
Fri, Dec 9
46 °FCool.5 mph70%30.40 "HgN/A
10:00 pm45 °FOvercast.6 mph71%30.41 "Hg19 mi
8:00 pm46 °FPassing clouds.7 mph66%30.38 "Hg19 mi
7:00 pm47 °FPassing clouds.6 mph62%30.39 "Hg19 mi
6:00 pm48 °FPassing clouds.7 mph59%30.38 "Hg19 mi
5:00 pm49 °FPassing clouds.8 mph53%30.37 "Hg19 mi
4:00 pm50 °FOvercast.8 mph44%30.36 "Hg31 mi
3:00 pm50 °FPartly sunny.9 mph38%30.35 "Hg31 mi
2:00 pm50 °FOvercast.10 mph38%30.37 "Hg43 mi
1:00 pm51 °FOvercast.10 mph36%30.38 "Hg34 mi
12:00 pm52 °FPartly sunny.13 mph37%30.37 "Hg25 mi
11:00 am50 °FPartly sunny.13 mph37%30.38 "Hg19 mi
10:00 am49 °FScattered clouds.12 mph40%30.39 "Hg12 mi
Weather by CustomWeather, © 2016

See weather overviewHow to use our weather pages